7 * 24
多渠道服务支持
ONEWEB-0688是英国OneWeb低轨卫星星座中的一颗通信卫星,由OneWeb与空客合资企业制造,于2024年10月20日发射入轨。卫星重量约147.5公斤,搭载Ku波段天线,工作在12~18GHz频段,通过特殊频率设计避免对静止轨道卫星产生干扰。 作为OneWeb全球互联星座的组成部分,它运行在近地轨道,旨在为全球提供无处不在的宽带互联网接入服务,尤其覆盖偏远地区,助力缩小数字鸿沟。卫星设计寿命满足星座组网需求,任务结束后会按计划安全脱轨,减少太空碎片风险。
英国
(GB)
| 数据来源 | 国际轨道数据 |
| 星历时间: | 2026-03-13T18:16:21+0800 22小时前 查看轨道信息 |
| 半长轴: | 7571.851km |
| 偏心率: | 0.0000969 |
| 轨道倾角: | 87.915° |
| 近地点辐角 | 41.756° |
| 升交点赤经 | 24.899° |
| 平近点角 | 318.365° |
| 近地点: | 1192.98km |
| 远地点: | 1194.448km |
| 周期: | 109.286分钟 |
| 每日圈数: | 13.17649 |